Weather History for La Grange, GA

Change the Weather History Date:

Friday, October 12, 2012

  Actual Average Record
Temperature  
Mean Temperature 68 °F -  
Max Temperature 84 °F 77 °F 86 °F (1962)
Min Temperature 51 °F 49 °F 33 °F (2000)
Cooling Degree Days 2    
Growing Degree Days 18 (Base 50)    
Moisture  
Dew Point 61 °F    
Average Humidity 69    
Maximum Humidity 100    
Minimum Humidity 37    
Precipitation  
Precipitation 0.00 in - - ()
Sea Level Pressure  
Sea Level Pressure 30.24 in    
Wind  
Wind Speed 2 mph (NNW)    
Max Wind Speed 13 mph    
Max Gust Speed 17 mph    
Visibility 10 miles    
Events      
Averages and records for this station are not official NWS values.
T = Trace of Precipitation, MM = Missing Value Source: NWS Daily Summary

Daily Weather History Graph

Daily Weather History Graph

Search for Another Location

Airport:

Trip Planner

Search our weather history database for the weather conditions in past years. The results will help you decide how hot, cold, wet, or windy it might be!

Date:

Astronomy

Oct. 12, 2012 Rise Set
Actual Time 7:42 AM EDT 7:10 PM EDT
Civil Twilight 7:17 AM EDT 7:34 PM EDT
Nautical Twilight 6:49 AM EDT 8:03 PM EDT
Astronomical Twilight 6:20 AM EDT 8:32 PM EDT
Moon 4:33 AM EDT (10/12) 5:12 PM EDT (10/12)
Length of Visible Light 12h 17m
Length of Day
11h 27m
Waning Crescent, 11% of the Moon is Illuminated
Oct 12
Waning Crescent
Oct 15
New
Oct 21
First Quarter
Oct 29
Full
Nov 6
Last Quarter

Hourly Weather History & Observations

Time (EDT) Temp. Heat Index Dew Point Humidity Pressure Visibility Wind Dir Wind Speed Gust Speed Precip Events Conditions
12:15 AM 55.4 °F - - N/A% 30.25 in 7.0 mi Calm Calm - N/A   Clear
12:35 AM 55.4 °F - - N/A% 30.24 in 10.0 mi Calm Calm - N/A   Clear
12:55 AM 53.6 °F - - N/A% 30.24 in 10.0 mi Calm Calm - N/A   Clear
1:15 AM 55.4 °F - - N/A% 30.24 in 10.0 mi North - - N/A   Scattered Clouds
1:35 AM 55.4 °F - - N/A% 30.24 in 10.0 mi Calm Calm - N/A   Partly Cloudy
1:55 AM 55.4 °F - - N/A% 30.24 in 10.0 mi Calm Calm - N/A   Clear
2:15 AM 53.6 °F - - N/A% 30.23 in 10.0 mi Calm Calm - N/A   Clear
2:35 AM 53.6 °F - - N/A% 30.23 in 10.0 mi Calm Calm - N/A   Clear
2:55 AM 53.6 °F - - N/A% 30.23 in 10.0 mi Calm Calm - N/A   Clear
3:15 AM 53.6 °F - - N/A% 30.22 in 10.0 mi Calm Calm - N/A   Clear
3:35 AM 53.6 °F - - N/A% 30.21 in 10.0 mi Calm Calm - N/A   Clear
3:55 AM 53.6 °F - - N/A% 30.22 in 10.0 mi Calm Calm - N/A   Clear
4:15 AM 51.8 °F - - N/A% 30.21 in 10.0 mi Calm Calm - N/A   Clear
4:35 AM 51.8 °F - - N/A% 30.21 in 3.0 mi Calm Calm - N/A   Clear
4:55 AM 51.8 °F - - N/A% 30.21 in 1.5 mi Calm Calm - N/A   Clear
5:15 AM 53.6 °F - - N/A% 30.22 in 10.0 mi Calm Calm - N/A   Clear
5:55 AM 51.8 °F - - N/A% 30.22 in 10.0 mi Calm Calm - N/A   Partly Cloudy
6:15 AM 51.8 °F - - N/A% 30.23 in 7.0 mi Calm Calm - N/A   Partly Cloudy
6:35 AM 51.8 °F - - N/A% 30.22 in 10.0 mi Calm Calm - N/A   Clear
6:55 AM 51.8 °F - - N/A% 30.23 in 4.0 mi Calm Calm - N/A   Clear
7:15 AM 51.8 °F - - N/A% 30.23 in 9.0 mi Calm Calm - N/A   Clear
7:35 AM 51.8 °F - - N/A% 30.24 in 7.0 mi Calm Calm - N/A   Clear
7:55 AM 51.8 °F - - N/A% 30.24 in 10.0 mi Calm Calm - N/A   Clear
8:15 AM 53.6 °F - - N/A% 30.25 in 10.0 mi Calm Calm - N/A   Clear
8:35 AM 57.2 °F - - N/A% 30.26 in 10.0 mi Calm Calm - N/A   Clear
8:55 AM 59.0 °F - - N/A% 30.27 in 10.0 mi Calm Calm - N/A   Clear
9:15 AM 60.8 °F - 60.8 °F 100% 30.28 in 9.0 mi Calm Calm - N/A   Clear
9:35 AM 62.6 °F - 62.6 °F 100% 30.28 in 10.0 mi Calm Calm - N/A   Clear
9:55 AM 66.2 °F - 64.4 °F 94% 30.28 in 10.0 mi Calm Calm - N/A   Partly Cloudy
10:15 AM 68.0 °F - 62.6 °F 83% 30.29 in 10.0 mi Calm Calm - N/A   Scattered Clouds
10:35 AM 69.8 °F - 60.8 °F 73% 30.29 in 10.0 mi NNW 3.5 mph - N/A   Scattered Clouds
10:55 AM 69.8 °F - 60.8 °F 73% 30.29 in 10.0 mi North 4.6 mph - N/A   Mostly Cloudy
11:15 AM 71.6 °F - 57.2 °F 60% 30.29 in 10.0 mi NW 4.6 mph - N/A   Scattered Clouds
11:35 AM 71.6 °F - 57.2 °F 60% 30.29 in 10.0 mi NW 8.1 mph - N/A   Mostly Cloudy
11:55 AM 71.6 °F - 59.0 °F 64% 30.29 in 10.0 mi North 4.6 mph - N/A   Mostly Cloudy
12:15 PM 73.4 °F - 60.8 °F 65% 30.28 in 10.0 mi North 4.6 mph - N/A   Mostly Cloudy
12:55 PM 77.0 °F - 57.2 °F 50% 30.25 in 10.0 mi NNW 4.6 mph - N/A   Clear
1:15 PM 78.8 °F - 59.0 °F 51% 30.23 in 10.0 mi West 5.8 mph - N/A   Clear
1:35 PM 80.6 °F 81.1 °F 59.0 °F 48% 30.22 in 10.0 mi West 8.1 mph - N/A   Clear
2:15 PM 82.4 °F 82.5 °F 59.0 °F 45% 30.20 in 10.0 mi West 8.1 mph - N/A   Clear
2:35 PM 82.4 °F 82.0 °F 57.2 °F 42% 30.19 in 10.0 mi NW 12.7 mph 17.3 mph N/A   Clear
2:55 PM 82.4 °F 81.7 °F 55.4 °F 39% 30.19 in 10.0 mi WNW 12.7 mph 16.1 mph N/A   Clear
3:35 PM 82.4 °F 81.7 °F 55.4 °F 39% 30.18 in 10.0 mi North 5.8 mph - N/A   Clear
3:55 PM 84.2 °F 83.0 °F 55.4 °F 37% 30.18 in 10.0 mi NNW 9.2 mph - N/A   Clear
4:15 PM 82.4 °F 81.7 °F 55.4 °F 39% 30.18 in 10.0 mi NNW 8.1 mph - N/A   Clear
4:35 PM 82.4 °F 82.0 °F 57.2 °F 42% 30.18 in 10.0 mi NW 11.5 mph - N/A   Clear
4:55 PM 82.4 °F 82.0 °F 57.2 °F 42% 30.18 in 10.0 mi NW 4.6 mph - N/A   Clear
5:15 PM 82.4 °F 82.0 °F 57.2 °F 42% 30.19 in 10.0 mi NNW 5.8 mph - N/A   Clear
5:35 PM 80.6 °F 80.8 °F 57.2 °F 45% 30.19 in 10.0 mi NW 6.9 mph - N/A   Clear
5:55 PM 80.6 °F 80.8 °F 57.2 °F 45% 30.19 in 10.0 mi NNW 5.8 mph - N/A   Clear
6:15 PM 78.8 °F - 57.2 °F 47% 30.20 in 10.0 mi North 5.8 mph - N/A   Clear
6:35 PM 77.0 °F - 60.8 °F 57% 30.21 in 10.0 mi NE 5.8 mph - N/A   Clear
6:55 PM 75.2 °F - 60.8 °F 61% 30.21 in 10.0 mi NE 3.5 mph - N/A   Clear
7:15 PM 73.4 °F - 62.6 °F 69% 30.22 in 10.0 mi NNE 5.8 mph - N/A   Clear
7:35 PM 73.4 °F - 62.6 °F 69% 30.23 in 8.0 mi NNE 4.6 mph - N/A   Clear
7:55 PM 71.6 °F - 62.6 °F 73% 30.24 in 10.0 mi NNE 3.5 mph - N/A   Clear
8:15 PM 71.6 °F - 64.4 °F 78% 30.24 in 10.0 mi NNE 3.5 mph - N/A   Clear
8:35 PM 69.8 °F - 64.4 °F 83% 30.24 in 10.0 mi Calm Calm - N/A   Clear
8:55 PM 69.8 °F - 64.4 °F 83% 30.25 in 10.0 mi Calm Calm - N/A   Clear
9:15 PM 68.0 °F - 66.2 °F 94% 30.25 in 10.0 mi Calm Calm - N/A   Clear
9:35 PM 68.0 °F - 66.2 °F 94% 30.25 in 10.0 mi Calm Calm - N/A   Clear
9:55 PM 64.4 °F - 64.4 °F 100% 30.26 in 10.0 mi Calm Calm - N/A   Clear
10:15 PM 66.2 °F - 66.2 °F 100% 30.26 in 10.0 mi Calm Calm - N/A   Clear
10:35 PM 66.2 °F - 66.2 °F 100% 30.26 in 10.0 mi Calm Calm - N/A   Clear
10:55 PM 66.2 °F - 66.2 °F 100% 30.26 in 10.0 mi Calm Calm - N/A   Clear
11:15 PM 66.2 °F - 66.2 °F 100% 30.26 in 10.0 mi Calm Calm - N/A   Clear
11:35 PM 66.2 °F - 66.2 °F 100% 30.26 in 10.0 mi NE 3.5 mph - N/A   Clear
11:55 PM 66.2 °F - 66.2 °F 100% 30.26 in 10.0 mi Calm Calm - N/A   Clear